Location: Unspecified
(50.7693°N, 0.0000°E)
Time: 20:17:59
(UTC+00:00)

Transit 2A - Pass Details

Date: 04 July 2019
Orbit: 597 x 962 km, 66.7° (Epoch: 21 August)

Event Time Altitude Azimuth Distance (km) Brightness Sun altitude
Rises 20:28:11 0° 181° (S) 3,629 9.1 -2.4°
Reaches altitude 10° 20:31:00 10° 172° (S) 2,691 8.4 -2.7°
Maximum altitude 20:36:29 32° 112° (ESE) 1,575 7.2 -3.3°
Drops below altitude 10° 20:41:51 10° 52° (NE) 2,625 8.7 -3.9°
Sets 20:44:33 0° 43° (NE) 3,528 9.5 -4.2°
